Weather History for Estherville, IA

Change the Weather History Date:

Sunday, December 15, 2013

  Actual Average Record
Temperature  
Mean Temperature 6 °F 19 °F  
Max Temperature 8 °F 28 °F 50 °F (1957)
Min Temperature 3 °F 10 °F -19 °F (1989)
Degree Days  
Heating Degree Days 59 46  
Month to date heating degree days 782 656  
Since 1 July heating degree days 2435 2375  
Cooling Degree Days 0 0  
Month to date cooling degree days 0 0  
Year to date cooling degree days 712 593  
Moisture  
Dew Point 1 °F    
Average Humidity 80    
Maximum Humidity 88    
Minimum Humidity 72    
Precipitation  
Precipitation 0.03 in 0.01 in 0.53 in (1973)
Month to date precipitation 0.14 0.53  
Sea Level Pressure  
Sea Level Pressure 30.09 in    
Wind  
Wind Speed 8 mph (NE)    
Max Wind Speed 16 mph    
Max Gust Speed 20 mph    
Visibility 5 miles    
Events Snow    
T = Trace of Precipitation, MM = Missing Value Source: NWS Daily Summary

Daily Weather History Graph

Daily Weather History Graph

Search for Another Location

Airport:

Trip Planner

Search our weather history database for the weather conditions in past years. The results will help you decide how hot, cold, wet, or windy it might be!

Date:

Astronomy

Dec. 15, 2013 Rise Set
Actual Time 7:44 AM CST 4:43 PM CST
Civil Twilight 7:12 AM CST 5:16 PM CST
Nautical Twilight 6:36 AM CST 5:52 PM CST
Astronomical Twilight 6:01 AM CST 6:27 PM CST
Moon 3:50 PM CST (12/15) 5:59 AM CST (12/15)
Length of Visible Light 10h 04m
Length of Day
8h 58m
Waxing Gibbous, 98% of the Moon is Illuminated
Dec 15
Waxing Gibbous
Dec 17
Full
Dec 25
Last Quarter
Jan 1
New
Jan 7
First Quarter

Hourly Weather History & Observations

Time (CST) Temp. Windchill Dew Point Humidity Pressure Visibility Wind Dir Wind Speed Gust Speed Precip Events Conditions
12:52 AM 7.0 °F -8.3 °F 1.0 °F 77% 30.17 in 10.0 mi NNW 11.5 mph - N/A   Overcast
1:52 AM 7.0 °F -7.5 °F -0.0 °F 73% 30.16 in 10.0 mi NNW 10.4 mph - N/A   Overcast
2:52 AM 7.0 °F -7.5 °F -0.0 °F 73% 30.17 in 10.0 mi NNW 10.4 mph - N/A   Overcast
3:52 AM 6.1 °F -8.7 °F -0.0 °F 76% 30.17 in 10.0 mi NNW 10.4 mph - N/A   Overcast
4:52 AM 5.0 °F -11.6 °F -0.9 °F 76% 30.18 in 10.0 mi NNW 12.7 mph - 0.00 in   Overcast
5:52 AM 3.9 °F -9.4 °F -2.0 °F 76% 30.16 in 10.0 mi NNW 8.1 mph - N/A   Overcast
6:52 AM 3.9 °F -11.3 °F -2.9 °F 73% 30.15 in 10.0 mi North 10.4 mph - N/A   Overcast
7:52 AM 3.9 °F -10.4 °F -4.0 °F 70% 30.16 in 10.0 mi NNW 9.2 mph - N/A   Overcast
8:52 AM 3.9 °F -10.4 °F -2.9 °F 73% 30.18 in 10.0 mi NNW 9.2 mph - N/A   Overcast
9:52 AM 5.0 °F -9.1 °F -2.0 °F 73% 30.18 in 8.0 mi NNE 9.2 mph - N/A   Overcast
10:52 AM 5.0 °F -6.9 °F -2.0 °F 73% 30.19 in 10.0 mi North 6.9 mph - N/A   Overcast
11:52 AM 6.1 °F -5.6 °F -0.9 °F 73% 30.17 in 10.0 mi NNE 6.9 mph - N/A   Overcast
12:52 PM 6.1 °F -2.8 °F -0.9 °F 73% 30.13 in 10.0 mi NNE 4.6 mph - N/A   Overcast
1:52 PM 6.1 °F -5.6 °F -0.0 °F 76% 30.12 in 3.0 mi NNE 6.9 mph - 0.00 in Snow Light Snow
2:00 PM 6.1 °F -4.3 °F -0.0 °F 76% 30.02 in 2.5 mi NE 5.8 mph - 0.00 in Snow Light Snow
2:08 PM 6.1 °F -4.3 °F -0.0 °F 76% 30.02 in 3.0 mi NE 5.8 mph - 0.00 in Snow Light Snow
2:21 PM 6.1 °F -4.3 °F -0.0 °F 76% 30.02 in 2.0 mi NE 5.8 mph - 0.00 in Snow Light Snow
2:38 PM 7.0 °F -1.7 °F -0.0 °F 73% 30.03 in 4.0 mi ENE 4.6 mph - 0.00 in Snow Light Snow
2:52 PM 7.0 °F -3.3 °F -0.0 °F 73% 30.13 in 6.0 mi NNE 5.8 mph - 0.00 in   Haze
3:22 PM 7.0 °F -1.7 °F -0.0 °F 73% 30.04 in 2.5 mi NNE 4.6 mph - 0.00 in Snow Light Snow
3:52 PM 7.0 °F -3.3 °F 1.0 °F 77% 30.13 in 3.0 mi NE 5.8 mph - 0.00 in Snow Light Snow
4:16 PM 6.1 °F -2.8 °F 1.0 °F 80% 30.03 in 1.8 mi East 4.6 mph - 0.00 in Snow Light Snow
4:26 PM 6.1 °F -2.8 °F 1.0 °F 80% 30.04 in 1.2 mi NE 4.6 mph - 0.00 in Snow Light Snow
4:42 PM 6.1 °F -5.6 °F 1.0 °F 80% 30.03 in 1.0 mi ENE 6.9 mph - 0.00 in Snow Light Snow
4:49 PM 6.8 °F -4.8 °F 1.4 °F 79% 30.03 in 1.2 mi ENE 6.9 mph - 0.00 in Snow Light Snow
4:52 PM 6.1 °F -5.6 °F 1.0 °F 80% 30.12 in 1.5 mi ENE 6.9 mph - 0.00 in Snow Light Snow
4:58 PM 7.0 °F -4.5 °F 1.9 °F 80% 30.02 in 2.0 mi ENE 6.9 mph - 0.00 in Snow Light Snow
5:18 PM 7.0 °F -3.3 °F 1.9 °F 80% 30.03 in 3.0 mi ENE 5.8 mph - 0.00 in Snow Light Snow
5:32 PM 6.1 °F -6.8 °F 1.9 °F 83% 30.02 in 2.0 mi ENE 8.1 mph - 0.00 in Snow Light Snow
5:39 PM 6.1 °F -6.8 °F 1.9 °F 83% 30.03 in 1.5 mi ENE 8.1 mph - 0.00 in Snow Light Snow
5:52 PM 6.1 °F -6.8 °F 1.9 °F 83% 30.13 in 1.2 mi ENE 8.1 mph - 0.01 in Snow Light Snow
6:01 PM 6.1 °F -6.8 °F 1.9 °F 83% 30.03 in 1.0 mi ENE 8.1 mph - 0.00 in Snow Light Snow
6:18 PM 6.1 °F -5.6 °F 3.0 °F 87% 30.04 in 1.0 mi ENE 6.9 mph - 0.00 in Snow Light Snow
6:27 PM 6.1 °F -5.6 °F 3.0 °F 87% 30.05 in 1.0 mi ENE 6.9 mph - 0.01 in Snow Light Snow
6:34 PM 6.1 °F -5.6 °F 3.0 °F 87% 30.05 in 1.2 mi ENE 6.9 mph - 0.01 in Snow Light Snow
6:52 PM 7.0 °F -4.5 °F 3.0 °F 84% 30.14 in 1.8 mi NE 6.9 mph - 0.01 in Snow Light Snow
7:28 PM 7.0 °F -5.7 °F 3.0 °F 84% 30.03 in 3.0 mi East 8.1 mph - 0.01 in Snow Light Snow
7:52 PM 7.0 °F -5.7 °F 3.0 °F 84% 30.14 in 8.0 mi ENE 8.1 mph - 0.01 in   Overcast
8:10 PM 7.0 °F -5.7 °F 3.0 °F 84% 30.03 in 2.5 mi East 8.1 mph - 0.00 in Snow Light Snow
8:18 PM 7.0 °F -4.5 °F 3.0 °F 84% 30.03 in 5.0 mi East 6.9 mph - 0.00 in Snow Light Snow
8:29 PM 7.0 °F -5.7 °F 3.0 °F 84% 30.03 in 9.0 mi East 8.1 mph - 0.00 in   Overcast
8:52 PM 7.0 °F -6.6 °F 3.0 °F 84% 30.14 in 10.0 mi ENE 9.2 mph - 0.00 in   Overcast
9:52 PM 7.0 °F -5.7 °F 3.0 °F 84% 30.13 in 10.0 mi East 8.1 mph - N/A   Overcast
10:52 PM 8.1 °F -4.3 °F 3.0 °F 80% 30.12 in 10.0 mi East 8.1 mph - N/A   Overcast
11:52 PM 8.1 °F -3.2 °F 3.9 °F 83% 30.12 in 10.0 mi East 6.9 mph - N/A   Overcast